Time,TemperatureF,DewpointF,PressureIn,WindDirection,WindDirectionDegrees,WindSpeedMPH,WindSpeedGustMPH,Humidity,HourlyPrecipIn,Conditions,Clouds,dailyrainin,SoftwareType,DateUTC
2013-08-20 00:23:00,65.0,63.0,-100.00,NE,35,1.0,2.0,95,0.00,,,-99.99,,2013-08-20 04:23:00,
2013-08-20 00:53:00,64.0,62.0,-100.00,NW,310,0.0,1.0,95,0.00,,,-99.99,,2013-08-20 04:53:00,
2013-08-20 01:22:00,63.0,62.0,-100.00,NE,35,0.0,1.0,96,0.00,,,-99.99,,2013-08-20 05:22:00,
2013-08-20 01:42:00,63.0,61.0,-100.00,NNE,15,0.0,0.0,95,0.00,,,-99.99,,2013-08-20 05:42:00,
2013-08-20 01:52:00,62.0,61.0,-100.00,North,5,0.0,1.0,96,0.00,,,-99.99,,2013-08-20 05:52:00,
2013-08-20 02:22:00,62.0,60.0,-100.00,WNW,290,0.0,1.0,96,0.00,,,-99.99,,2013-08-20 06:22:00,
2013-08-20 02:52:00,61.0,60.0,-100.00,WNW,300,0.0,1.0,97,0.00,,,-99.99,,2013-08-20 06:52:00,
2013-08-20 03:22:00,60.0,59.0,-100.00,WNW,285,0.0,0.0,98,0.00,,,-99.99,,2013-08-20 07:22:00,
2013-08-20 03:52:00,60.0,59.0,-100.00,ENE,75,0.0,1.0,97,0.00,,,-99.99,,2013-08-20 07:52:00,
2013-08-20 04:21:00,60.0,59.0,-100.00,NE,35,0.0,1.0,96,0.00,,,-99.99,,2013-08-20 08:21:00,
2013-08-20 04:52:00,60.0,59.0,-100.00,East,100,0.0,1.0,96,0.00,,,-99.99,,2013-08-20 08:52:00,
2013-08-20 05:21:00,59.0,58.0,-100.00,NW,305,0.0,1.0,97,0.00,,,-99.99,,2013-08-20 09:21:00,
2013-08-20 05:53:00,60.0,59.0,-100.00,SE,125,0.0,1.0,97,0.00,,,-99.99,,2013-08-20 09:53:00,
2013-08-20 06:22:00,59.0,58.0,-100.00,NNE,20,0.0,1.0,98,0.00,,,-99.99,,2013-08-20 10:22:00,
2013-08-20 06:52:00,59.0,58.0,-100.00,NNE,30,0.0,2.0,98,0.00,,,-99.99,,2013-08-20 10:52:00,
2013-08-20 07:22:00,59.0,58.0,-100.00,SSE,155,0.0,2.0,97,0.00,,,-99.99,,2013-08-20 11:22:00,
2013-08-20 07:33:00,59.0,58.0,-100.00,SSE,155,0.0,2.0,97,0.00,,,-99.99,,2013-08-20 11:33:00,
2013-08-20 07:52:00,60.0,58.0,-100.00,NE,50,1.0,2.0,94,0.00,,,-99.99,,2013-08-20 11:52:00,
2013-08-20 08:12:00,60.0,58.0,-100.00,NNE,25,1.0,2.0,94,0.00,,,-99.99,,2013-08-20 12:12:00,
2013-08-20 08:21:00,61.0,59.0,-100.00,NE,35,1.0,2.0,93,0.00,,,-99.99,,2013-08-20 12:21:00,
2013-08-20 08:52:00,64.0,61.0,-100.00,East,95,0.0,2.0,90,0.00,,,-99.99,,2013-08-20 12:52:00,
2013-08-20 09:22:00,66.0,63.0,-100.00,East,100,1.0,2.0,88,0.00,,,-99.99,,2013-08-20 13:22:00,
2013-08-20 09:52:00,70.0,64.0,-100.00,ESE,110,0.0,2.0,82,0.00,,,-99.99,,2013-08-20 13:52:00,
2013-08-20 10:21:00,71.0,65.0,-100.00,SW,225,1.0,2.0,80,0.00,,,-99.99,,2013-08-20 14:21:00,
2013-08-20 10:52:00,74.0,66.0,-100.00,NW,320,1.0,4.0,78,0.00,,,-99.99,,2013-08-20 14:52:00,
2013-08-20 11:22:00,76.0,67.0,-100.00,SW,215,1.0,4.0,74,0.00,,,-99.99,,2013-08-20 15:22:00,
2013-08-20 11:53:00,78.0,65.0,-100.00,West,275,3.0,6.0,66,0.00,,,-99.99,,2013-08-20 15:53:00,
2013-08-20 12:30:00,-999.0,-99.9,-100.00,South,170,3.0,7.0,54,0.00,,,-99.99,,2013-08-20 16:30:00,
2013-08-20 12:52:00,79.0,61.0,-100.00,SW,230,4.0,7.0,54,0.00,,,-99.99,,2013-08-20 16:52:00,
2013-08-20 13:24:00,82.0,63.0,-100.00,SE,135,2.0,6.0,54,0.00,,,-99.99,,2013-08-20 17:24:00,
2013-08-20 13:52:00,83.0,61.0,-100.00,ENE,70,1.0,5.0,48,0.00,,,-99.99,,2013-08-20 17:52:00,
2013-08-20 14:22:00,82.0,63.0,-100.00,SSW,200,4.0,7.0,51,0.00,,,-99.99,,2013-08-20 18:22:00,
2013-08-20 14:52:00,83.0,63.0,-100.00,SSW,205,2.0,6.0,51,0.00,,,-99.99,,2013-08-20 18:52:00,
2013-08-20 15:22:00,83.0,62.0,-100.00,SSW,210,4.0,7.0,49,0.00,,,-99.99,,2013-08-20 19:22:00,
2013-08-20 15:52:00,85.0,62.0,-100.00,SE,135,3.0,6.0,47,0.00,,,-99.99,,2013-08-20 19:52:00,
2013-08-20 16:22:00,85.0,62.0,-100.00,SE,135,4.0,7.0,47,0.00,,,-99.99,,2013-08-20 20:22:00,
2013-08-20 16:52:00,85.0,62.0,-100.00,SE,145,3.0,6.0,46,0.00,,,-99.99,,2013-08-20 20:52:00,
2013-08-20 17:22:00,84.0,61.0,-100.00,SE,130,3.0,6.0,46,0.00,,,-99.99,,2013-08-20 21:22:00,
2013-08-20 17:55:00,84.0,63.0,-100.00,South,170,2.0,6.0,48,0.00,,,-99.99,,2013-08-20 21:55:00,
2013-08-20 18:24:00,83.0,62.0,-100.00,SE,125,3.0,7.0,49,0.00,,,-99.99,,2013-08-20 22:24:00,
2013-08-20 18:53:00,82.0,62.0,-100.00,SE,140,3.0,5.0,51,0.00,,,-99.99,,2013-08-20 22:53:00,
2013-08-20 19:22:00,81.0,63.0,-100.00,ESE,115,1.0,3.0,53,0.00,,,-99.99,,2013-08-20 23:22:00,
2013-08-20 19:52:00,80.0,63.0,-100.00,ESE,110,1.0,2.0,56,0.00,,,-99.99,,2013-08-20 23:52:00,
2013-08-20 20:23:00,77.0,64.0,-100.00,East,85,1.0,2.0,64,0.00,,,-99.99,,2013-08-21 00:23:00,
2013-08-20 20:52:00,76.0,64.0,-100.00,ENE,70,1.0,2.0,67,0.00,,,-99.99,,2013-08-21 00:52:00,
2013-08-20 21:22:00,74.0,64.0,-100.00,ESE,105,1.0,2.0,70,0.00,,,-99.99,,2013-08-21 01:22:00,
2013-08-20 21:52:00,73.0,66.0,-100.00,SE,130,1.0,3.0,77,0.00,,,-99.99,,2013-08-21 01:52:00,
2013-08-20 22:22:00,72.0,66.0,-100.00,ESE,105,1.0,2.0,82,0.00,,,-99.99,,2013-08-21 02:22:00,
2013-08-20 22:52:00,72.0,66.0,-100.00,NNW,330,0.0,1.0,82,0.00,,,-99.99,,2013-08-21 02:52:00,
2013-08-20 23:23:00,70.0,66.0,-100.00,NNE,30,1.0,1.0,87,0.00,,,-99.99,,2013-08-21 03:23:00,
2013-08-20 23:55:00,68.0,65.0,-100.00,NE,40,1.0,2.0,90,0.00,,,-99.99,,2013-08-21 03:55:00,